Weather History for KCVG - June, 2013

Change the Weather History Date:

Saturday, June 8, 2013

  Actual Average Record
Temperature  
Mean Temperature 68 °F 70 °F  
Max Temperature 77 °F 80 °F 98 °F (1874)
Min Temperature 59 °F 60 °F 46 °F (1977)
Degree Days  
Heating Degree Days 0 1  
Month to date heating degree days 1 9  
Since 1 June heating degree days 1 9  
Since 1 July heating degree days 4981 4969  
Cooling Degree Days 3 6  
Month to date cooling degree days 35 43  
Year to date cooling degree days 174 137  
Since 1 June cooling degree days 35 43  
Growing Degree Days 18 (Base 50)    
Moisture  
Dew Point 58 °F    
Average Humidity 70    
Maximum Humidity 84    
Minimum Humidity 56    
Precipitation  
Precipitation T in 0.15 in 2.18 in (1978)
Month to date precipitation 0.38 1.21  
Year to date precipitation 18.26 19.80  
Snow  
Snow 0.00 in 0.00 in 0.00 in ()
Month to date snowfall 0.0 0.0  
Since 1 June snowfall 0.0 0.0  
Since 1 July snowfall 25.2 22.1  
Snow Depth 0.00 in    
Sea Level Pressure  
Sea Level Pressure 29.96 in    
Wind  
Wind Speed 6 mph (East)    
Max Wind Speed 14 mph    
Max Gust Speed 16 mph    
Visibility 7 miles    
Events      
T = Trace of Precipitation, MM = Missing Value Source: NWS Daily Summary

Daily Weather History Graph

Daily Weather History Graph

Search for Another Location

Airport or City:

Trip Planner

Search our weather history database for the weather conditions in past years. The results will help you decide how hot, cold, wet, or windy it might be!

Date:

Astronomy

Jun. 08, 2013 Rise Set
Actual Time 6:12 AM EDT 9:03 PM EDT
Civil Twilight 5:40 AM EDT 9:35 PM EDT
Nautical Twilight 5:00 AM EDT 10:15 PM EDT
Astronomical Twilight 4:14 AM EDT 11:01 PM EDT
Moon 6:19 AM EDT (6/8) 9:05 PM EDT (6/8)
Length of Visible Light 15h 54m
Length of Day
14h 50m
New Moon, 0% of the Moon is Illuminated
Jun 8
New Moon
Jun 16
First Quarter
Jun 23
Full
Jun 30
Last Quarter
Jul 8
New

Hourly Weather History & Observations

Time (EDT) Temp. Dew Point Humidity Pressure Visibility Wind Dir Wind Speed Gust Speed Precip Events Conditions
12:52 AM 64.0 °F 57.0 °F 78% 29.88 in 5.0 mi East 10.4 mph - N/A   Haze
1:52 AM 63.0 °F 55.0 °F 75% 29.89 in 5.0 mi East 10.4 mph - N/A   Haze
2:52 AM 61.0 °F 55.0 °F 81% 29.89 in 4.0 mi East 5.8 mph - N/A   Haze
3:52 AM 60.1 °F 55.9 °F 86% 29.89 in 4.0 mi East 5.8 mph - N/A   Mostly Cloudy
4:52 AM 60.1 °F 55.0 °F 83% 29.90 in 4.0 mi East 6.9 mph - N/A   Haze
5:52 AM 60.1 °F 55.0 °F 83% 29.91 in 4.0 mi ENE 6.9 mph - N/A   Haze
6:52 AM 60.1 °F 55.0 °F 83% 29.93 in 3.0 mi ENE 6.9 mph - N/A   Haze
7:52 AM 60.1 °F 55.9 °F 86% 29.94 in 4.0 mi ESE 5.8 mph - N/A   Mostly Cloudy
8:52 AM 64.9 °F 57.0 °F 75% 29.96 in 6.0 mi ESE 5.8 mph - N/A   Haze
9:52 AM 66.9 °F 55.9 °F 68% 29.97 in 7.0 mi East 9.2 mph - N/A   Overcast
10:52 AM 69.1 °F 55.9 °F 63% 29.98 in 10.0 mi ESE 3.5 mph - N/A   Overcast
11:52 AM 70.0 °F 57.9 °F 65% 29.99 in 9.0 mi Variable 3.5 mph - N/A   Overcast
12:52 PM 72.0 °F 57.0 °F 59% 29.99 in 9.0 mi Calm Calm - N/A   Overcast
1:52 PM 73.9 °F 59.0 °F 59% 29.99 in 9.0 mi South 3.5 mph - N/A   Overcast
2:52 PM 77.0 °F 60.1 °F 56% 29.97 in 9.0 mi NE 8.1 mph - N/A   Overcast
3:52 PM 75.0 °F 59.0 °F 57% 29.97 in 9.0 mi ENE 8.1 mph - N/A   Overcast
4:52 PM 73.9 °F 60.1 °F 62% 29.96 in 10.0 mi ENE 9.2 mph - N/A   Overcast
5:52 PM 75.0 °F 61.0 °F 62% 29.96 in 10.0 mi East 6.9 mph - N/A   Mostly Cloudy
6:52 PM 75.9 °F 61.0 °F 60% 29.96 in 10.0 mi SSE 5.8 mph - N/A   Mostly Cloudy
7:52 PM 73.9 °F 62.1 °F 66% 29.98 in 10.0 mi South 3.5 mph - N/A   Mostly Cloudy
8:52 PM 73.0 °F 63.0 °F 71% 29.99 in 10.0 mi Calm Calm - N/A   Mostly Cloudy
9:52 PM 71.1 °F 62.1 °F 73% 30.00 in 9.0 mi North 5.8 mph - N/A   Overcast
10:52 PM 72.0 °F 63.0 °F 73% 30.02 in 10.0 mi ENE 6.9 mph - 0.00 in   Overcast
11:52 PM 71.1 °F 64.0 °F 78% 30.02 in 9.0 mi East 6.9 mph - 0.00 in   Overcast